Bellefontaine, OH

8:57 PM EDT on July 24, 2017 (GMT -0400)
Bellefontaine

Weather History for KEDJ - May, 2014

Change the Weather History Date:

Sunday, May 4, 2014

  Actual Average (KDLZ) Record (KDLZ)
Temperature  
Mean Temperature 54 °F -  
Max Temperature 62 °F 65 °F 90 °F (1955)
Min Temperature 44 °F 41 °F 28 °F (1957)
Degree Days  
Heating Degree Days 11    
Growing Degree Days 4 (Base 50)    
Moisture  
Dew Point 34 °F    
Average Humidity 48    
Maximum Humidity 76    
Minimum Humidity 33    
Precipitation  
Precipitation 0.00 in - - ()
Sea Level Pressure  
Sea Level Pressure 29.93 in    
Wind  
Wind Speed 10 mph (West)    
Max Wind Speed 21 mph    
Max Gust Speed 30 mph    
Visibility 10 miles    
Events      
Averages and records for this station are not official NWS values.
T = Trace of Precipitation, MM = Missing Value Source: NWS Daily Summary

Daily Weather History Graph

Daily Weather History Graph

Search for Another Location

Airport or City:

Trip Planner

Search our weather history database for the weather conditions in past years. The results will help you decide how hot, cold, wet, or windy it might be!

Date:

Astronomy

May. 04, 2014 Rise Set
Actual Time 6:30 AM EDT 8:33 PM EDT
Civil Twilight 6:01 AM EDT 9:03 PM EDT
Nautical Twilight 5:24 AM EDT 9:40 PM EDT
Astronomical Twilight 4:45 AM EDT 10:20 PM EDT
Moon 10:54 AM EDT (5/4) 12:38 AM EDT (5/4)
Length of Visible Light 15h 02m
Length of Day
14h 02m
Waxing Crescent, 27% of the Moon is Illuminated
May 4
Waxing Crescent
May 6
First Quarter
May 14
Full
May 21
Last Quarter
May 28
New

Hourly Weather History & Observations

Time (EDT) Temp. Windchill Dew Point Humidity Pressure Visibility Wind Dir Wind Speed Gust Speed Precip Events Conditions
12:05 AM 51.8 °F - 37.4 °F 58% 29.86 in 10.0 mi SSW 9.2 mph - 0.00 in   Mostly Cloudy
12:30 AM 51.8 °F - 37.4 °F 58% 29.86 in 10.0 mi SW 8.1 mph - 0.00 in   Overcast
12:50 AM 51.8 °F - 35.6 °F 54% 29.86 in 10.0 mi SW 9.2 mph - 0.00 in   Overcast
1:05 AM 53.6 °F - 35.6 °F 51% 29.86 in 10.0 mi SW 12.7 mph - 0.00 in   Overcast
1:30 AM 53.6 °F - 33.8 °F 47% 29.86 in 10.0 mi SW 10.4 mph - 0.00 in   Mostly Cloudy
1:50 AM 53.6 °F - 35.6 °F 51% 29.86 in 10.0 mi SW 10.4 mph - 0.00 in   Mostly Cloudy
2:05 AM 53.6 °F - 33.8 °F 47% 29.85 in 10.0 mi SW 9.2 mph - 0.00 in   Mostly Cloudy
2:30 AM 53.6 °F - 35.6 °F 51% 29.85 in 10.0 mi SW 11.5 mph - 0.00 in   Mostly Cloudy
2:50 AM 53.6 °F - 35.6 °F 51% 29.85 in 10.0 mi SW 11.5 mph - 0.00 in   Mostly Cloudy
3:05 AM 53.6 °F - 35.6 °F 51% 29.85 in 10.0 mi SW 10.4 mph - 0.00 in   Mostly Cloudy
3:30 AM 53.6 °F - 35.6 °F 51% 29.84 in 10.0 mi SW 9.2 mph - 0.00 in   Overcast
3:50 AM 51.8 °F - 37.4 °F 58% 29.85 in 10.0 mi SW 10.4 mph - 0.00 in   Overcast
4:10 AM 51.8 °F - 37.4 °F 58% 29.85 in 10.0 mi SW 8.1 mph - 0.00 in   Scattered Clouds
4:30 AM 51.8 °F - 37.4 °F 58% 29.85 in 10.0 mi SW 8.1 mph - 0.00 in   Mostly Cloudy
4:50 AM 51.8 °F - 39.2 °F 62% 29.85 in 10.0 mi SW 8.1 mph - 0.00 in   Mostly Cloudy
5:10 AM 51.8 °F - 37.4 °F 58% 29.85 in 10.0 mi WSW 5.8 mph - 0.00 in   Mostly Cloudy
5:30 AM 51.8 °F - 39.2 °F 62% 29.86 in 10.0 mi WSW 5.8 mph - 0.00 in   Mostly Cloudy
5:50 AM 51.8 °F - 39.2 °F 62% 29.87 in 10.0 mi SW 4.6 mph - 0.00 in   Mostly Cloudy
6:10 AM 50.0 °F - 39.2 °F 66% 29.87 in 10.0 mi SW 5.8 mph - 0.00 in   Mostly Cloudy
6:30 AM 50.0 °F - 39.2 °F 66% 29.87 in 10.0 mi SW 5.8 mph - 0.00 in   Mostly Cloudy
6:45 AM 51.8 °F - 39.2 °F 62% 29.87 in 10.0 mi SW 5.8 mph - 0.00 in   Mostly Cloudy
7:10 AM 51.8 °F - 41.0 °F 67% 29.88 in 10.0 mi SW 6.9 mph - 0.00 in   Overcast
7:30 AM 53.6 °F - 39.2 °F 58% 29.88 in 10.0 mi SW 9.2 mph - 0.00 in   Mostly Cloudy
7:45 AM 53.6 °F - 41.0 °F 62% 29.89 in 10.0 mi WSW 10.4 mph - 0.00 in   Mostly Cloudy
8:10 AM 53.6 °F - 39.2 °F 58% 29.90 in 10.0 mi West 9.2 mph - 0.00 in   Mostly Cloudy
8:30 AM 53.6 °F - 39.2 °F 58% 29.90 in 10.0 mi West 10.4 mph - 0.00 in   Mostly Cloudy
8:50 AM 55.4 °F - 39.2 °F 54% 29.90 in 10.0 mi West 11.5 mph - 0.00 in   Mostly Cloudy
9:10 AM 55.4 °F - 39.2 °F 54% 29.90 in 10.0 mi West 12.7 mph 16.1 mph 0.00 in   Mostly Cloudy
9:30 AM 55.4 °F - 39.2 °F 54% 29.91 in 10.0 mi West 12.7 mph 21.9 mph 0.00 in   Scattered Clouds
9:50 AM 57.2 °F - 39.2 °F 51% 29.91 in 10.0 mi West 13.8 mph 23.0 mph 0.00 in   Scattered Clouds
10:10 AM 57.2 °F - 37.4 °F 48% 29.91 in 10.0 mi West 11.5 mph 19.6 mph 0.00 in   Mostly Cloudy
10:25 AM 57.2 °F - 35.6 °F 44% 29.91 in 10.0 mi West 15.0 mph - 0.00 in   Scattered Clouds
10:50 AM 57.2 °F - 35.6 °F 44% 29.92 in 10.0 mi West 13.8 mph 23.0 mph 0.00 in   Scattered Clouds
11:10 AM 59.0 °F - 35.6 °F 42% 29.93 in 10.0 mi WNW 20.7 mph 29.9 mph 0.00 in   Mostly Cloudy
11:25 AM 60.8 °F - 33.8 °F 36% 29.93 in 10.0 mi WNW 20.7 mph 26.5 mph 0.00 in   Scattered Clouds
11:50 AM 57.2 °F - 35.6 °F 44% 29.94 in 10.0 mi WNW 15.0 mph 27.6 mph 0.00 in   Mostly Cloudy
12:10 PM 57.2 °F - 35.6 °F 44% 29.94 in 10.0 mi WNW 13.8 mph - 0.00 in   Mostly Cloudy
12:25 PM 60.8 °F - 35.6 °F 39% 29.94 in 10.0 mi West 18.4 mph 24.2 mph 0.00 in   Partly Cloudy
12:50 PM 59.0 °F - 35.6 °F 42% 29.94 in 10.0 mi WNW 16.1 mph 25.3 mph 0.00 in   Scattered Clouds
1:10 PM 60.8 °F - 37.4 °F 42% 29.94 in 10.0 mi West 18.4 mph 21.9 mph 0.00 in   Partly Cloudy
1:25 PM 60.8 °F - 35.6 °F 39% 29.94 in 10.0 mi West 15.0 mph 24.2 mph 0.00 in   Clear
1:50 PM 62.6 °F - 35.6 °F 37% 29.94 in 10.0 mi WNW 17.3 mph 28.8 mph 0.00 in   Clear
2:10 PM 60.8 °F - 35.6 °F 39% 29.94 in 10.0 mi West 15.0 mph 23.0 mph 0.00 in   Clear
2:25 PM 60.8 °F - 33.8 °F 36% 29.95 in 10.0 mi WNW 16.1 mph 26.5 mph 0.00 in   Partly Cloudy
2:50 PM 60.8 °F - 32.0 °F 34% 29.94 in 10.0 mi West 17.3 mph 24.2 mph 0.00 in   Clear
3:10 PM 60.8 °F - 32.0 °F 34% 29.95 in 10.0 mi West 16.1 mph 25.3 mph 0.00 in   Clear
3:25 PM 60.8 °F - 32.0 °F 34% 29.96 in 10.0 mi West 12.7 mph 24.2 mph 0.00 in   Clear
3:50 PM 59.0 °F - 32.0 °F 36% 29.95 in 10.0 mi WNW 16.1 mph 26.5 mph 0.00 in   Clear
4:10 PM 57.2 °F - 30.2 °F 36% 29.97 in 10.0 mi NW 18.4 mph 25.3 mph 0.00 in   Clear
4:30 PM 57.2 °F - 28.4 °F 33% 29.98 in 10.0 mi NW 17.3 mph 27.6 mph 0.00 in   Clear
4:50 PM 57.2 °F - 30.2 °F 36% 29.98 in 10.0 mi NW 17.3 mph 24.2 mph 0.00 in   Clear
5:10 PM 57.2 °F - 30.2 °F 36% 29.98 in 10.0 mi WNW 10.4 mph 24.2 mph 0.00 in   Clear
5:25 PM 55.4 °F - 30.2 °F 38% 29.98 in 10.0 mi NW 16.1 mph 21.9 mph 0.00 in   Clear
5:50 PM 55.4 °F - 32.0 °F 41% 29.98 in 10.0 mi WNW 10.4 mph 20.7 mph 0.00 in   Clear
6:10 PM 55.4 °F - 30.2 °F 38% 29.98 in 10.0 mi NW 11.5 mph 18.4 mph 0.00 in   Clear
6:25 PM 53.6 °F - 28.4 °F 38% 29.99 in 10.0 mi NW 12.7 mph - 0.00 in   Partly Cloudy
6:50 PM 53.6 °F - 26.6 °F 35% 29.98 in 10.0 mi NW 10.4 mph - 0.00 in   Partly Cloudy
7:10 PM 53.6 °F - 24.8 °F 33% 29.98 in 10.0 mi NNW 11.5 mph - 0.00 in   Partly Cloudy
7:30 PM 51.8 °F - 26.6 °F 38% 29.97 in 10.0 mi NNW 6.9 mph - 0.00 in   Clear
7:50 PM 51.8 °F - 26.6 °F 38% 30.01 in 10.0 mi WNW 9.2 mph - 0.00 in   Clear
8:05 PM 51.8 °F - 26.6 °F 38% 30.01 in 10.0 mi WNW 4.6 mph - 0.00 in   Clear
8:30 PM 50.0 °F - 30.2 °F 47% 30.01 in 10.0 mi NW 6.9 mph - 0.00 in   Clear
8:50 PM 50.0 °F - 28.4 °F 43% 30.01 in 10.0 mi Calm Calm - 0.00 in   Clear
9:05 PM 48.2 °F - 30.2 °F 50% 30.02 in 10.0 mi Calm Calm - 0.00 in   Clear
9:30 PM 48.2 °F - 28.4 °F 46% 30.03 in 10.0 mi NW 4.6 mph - 0.00 in   Clear
9:50 PM 48.2 °F - 28.4 °F 46% 30.03 in 10.0 mi Calm Calm - 0.00 in   Clear
10:10 PM 48.2 °F - 28.4 °F 46% 30.04 in 10.0 mi Calm Calm - 0.00 in   Clear
10:30 PM 48.2 °F - 28.4 °F 46% 30.05 in 10.0 mi Calm Calm - 0.00 in   Clear
10:50 PM 48.2 °F - 28.4 °F 46% 30.05 in 10.0 mi Calm Calm - 0.00 in   Clear
11:05 PM 46.4 °F - 28.4 °F 50% 30.05 in 10.0 mi Calm Calm - 0.00 in   Clear
11:30 PM 46.4 °F 45.2 °F 30.2 °F 53% 30.05 in 10.0 mi NE 3.5 mph - 0.00 in   Clear
11:50 PM 44.6 °F 40.7 °F 37.4 °F 76% 30.05 in 10.0 mi NE 6.9 mph - 0.00 in   Clear